Overview Statistics Trail Chart Weather Telemetry Raw packets
 

This is the latest recevied weather packets stored in our database for station/object OK2KJT-11. If no packets are shown the sender has not sent any weather packets the latest 10 day(s).

<< 46 47 48 49 50 51 52 >>
Time Temp. Humidity Pressure Rain* Wind** Luminosity Snow
1787995908 18.33° C 75% 1019 hPa - - - -
1787995308 17.78° C 78% 1018.9 hPa - - - -
1787994708 17.22° C 78% 1018.8 hPa - - - -
1787994109 17.22° C 81% 1018.8 hPa - - - -
1787993509 16.67° C 84% 1018.8 hPa - - - -
1787992909 16.11° C 86% 1018.6 hPa - - - -
1787992309 15.56° C 88% 1018.7 hPa - - - -
1787991710 15.56° C 88% 1018.8 hPa - - - -
1787991110 16.11° C 90% 1018.7 hPa - - - -
1787990510 15.56° C 90% 1018.6 hPa - - - -
1787989911 15.56° C 92% 1018.5 hPa - - - -
1787989311 15° C 96% 1018.4 hPa - - - -
1787988711 14.44° C 98% 1018.3 hPa - - - -
1787988120 13.89° C 99% 1018.3 hPa - - - -
1787987511 13.33° C 100% 1018.1 hPa - - - -
1787986312 13.33° C 100% 1018.1 hPa - - - -
1787985712 12.78° C 100% 1017.9 hPa - - - -
1787985113 12.78° C 100% 1018.2 hPa - - - -
1787983914 13.33° C 100% 1017.9 hPa - - - -
1787983314 13.33° C 100% 1017.6 hPa - - - -
1787982712 13.33° C 100% 1017.1 hPa - - - -
1787982111 12.78° C 100% 1016.7 hPa - - - -
1787981512 12.78° C 100% 1017.1 hPa - - - -
1787980314 12.78° C 100% 1017.3 hPa - - - -
1787979714 12.78° C 100% 1017.3 hPa - - - -

* Rain since midnight (hover to see other rain measurements)
** Current wind speed in m/s (hover to see current wind gust speed)